ATLAS 5 CENTAUR DEB, 46869

Orbit data source: Space-Track

ATLAS 5 CENTAUR DEB, 46869 is space debris in HEO originally from a launch on Wed, 17 Oct 2018 UTC launched from the Air Force Eastern Test Range (AFETR). Debris objects in space refer to the collection of defunct objects orbiting the Earth. Examples of debris include non-operational satellites, rocket bodies, and fragments generated from explosions, collisions, or faulty payload assembly.

Loading next visibility...
ATLAS 5 CENTAUR DEB details
Identifier
46869, 2018-079EA
Orbit
HEO
Last TLE update2 days ago
Origin
Flag of USULA (US)
ManufacturerULA Decatur
MissionSpacecraft
Bus & MotorUnknown
MassUnknown
Launch date (UTC)
2018-10-17 (6 years ago)
Launch vehicleUnknown
Launch site
Air Force Eastern Test Range (AFETR)
Object type
Payload
Rocket body
Debris
Shape & HBRUnknown
Radar Cross SectionRCS unknown

Expand to show TLE details & history

TLE from 2 days ago
0 ATLAS 5 CENTAUR DEB
1 46869U 18079EA  24359.56161140 -.00000123  00000-0  00000-0 0  9992
2 46869  12.6386  80.1209 4671521 228.1129  81.2610  1.83281243 27742
Epoch: 2024-12-24T13:28Z
Definitive object data (Epoch: 2024-12-24T13:28:43.224Z)
Latitude0.00002°
Longitude144.32981°
Altitude25,686.113 km
Speed3.276 km/s
True Right ascension05h 20m 18s
True Declination0° 00' 00"
Sunlit
Object was in daylight at TLE epoch
Visualization TLE readout
Latitude8.40044°
Longitude-174.76887°
Altitude34,767.691 km
Speed2.29 km/s
Apparent Right ascension08h 05m 02s
Apparent Declination2° 25' 43"
Sunlit
Object is in daylight
Visualization observer readout
Local Sidereal Time20:14:25
Azimuth3.476° NNE
Elevation-47.601°
Doppler factor1
Orbital elements
Apogee altitude35,005.709 km
Perigee altitude8,651.863 km
Semi-major axis28,206.923 km
Eccentricity0.4671521
Inclination12.6386°
RAAN80.1209°
Arg. of periapsis228.1129°
True anomaly131.83458°
Mean anomaly81.261°
Eccentric anomaly106.8744°
Mean motion0.45815 °/min
BSTARUnknown
Orbital period785.77 mins
Loading maneuver chart data...

ATLAS 5 CENTAUR DEB Visibility forecast

Observer location: undefined°, undefined

Span
Click to sort rows by Start time (UTC) header in descending order
Start Az.
Max El. time (UTC)
Max El. Az.
Max El.
End time (UTC)
End Az.
695 mins2024-12-27 05:09:31.722Z225.212° WSW2024-12-27 10:14:31.722Z216.264° SW36.652°2024-12-27 16:44:31.722Z133.74° SE
|